Skip Page Navigation
NASA JPL Caltech
NASA Logo - Jet Propulsion Laboratory + View the NASA Portal
+ Center for Near-Earth Object Studies
JPL Home Earth Solar System Stars & Galaxies Technology
JPL Solar System Dynamics
BODIES ORBITS EPHEMERIDES TOOLS PHYSICAL DATA DISCOVERY FAQ SITE MAP
IMPORTANT: The SSD Announcement email list is now available. Major changes are coming in the near future, including possible hostname and/or URL changes. To be notified of such changes, subscribe to this email list.

Please visit this page for more details.


JPL Small-Body Database Browser
Search: [ help ]  
382019 (2011 BM62)
Classification: Main-belt Asteroid          SPK-ID: 2382019
Ephemeris | Orbit Diagram | Orbital Elements | Mission Design | Physical Parameters | Discovery Circumstances | Close-Approach Data ]

[ show orbit diagram ]
Orbital Elements at Epoch 2458600.5 (2019-Apr-27.0) TDB
Reference: JPL 11 (heliocentric ecliptic J2000)
 Element Value Uncertainty (1-sigma)   Units 
e .1241953424109142 1.1272e-07  
a 2.388455859982811 4.7339e-08 au
q 2.091820766618891 2.5042e-07 au
i 3.344705939154826 7.4789e-06 deg
node 102.8493166533969 0.00017495 deg
peri 98.14860670223219 0.00017827 deg
M 42.00127866402214 3.1302e-05 deg
tp 2458443.197991595567
(2018-Nov-20.69799160)
0.00011614 TDB
period 1348.261882181776
3.69
4.0083e-05
1.097e-07
d
yr
n .2670104411892465 7.9381e-09 deg/d
Q 2.685090953346731 5.3218e-08 au
  Orbit Determination Parameters
   # obs. used (total)      125  
   data-arc span      4050 days (11.09 yr)  
   first obs. used      2006-12-12  
   last obs. used      2018-01-13  
   planetary ephem.      DE431  
   SB-pert. ephem.      SB431-N16  
   condition code      0  
   norm. resid. RMS      .64773  
   source      ORB  
   producer      Otto Matic  
   solution date      2019-Jul-14 13:58:26  

Additional Information
 Earth MOID = 1.09229 au 
 Jupiter MOID = 2.27587 au 
 T_jup = 3.521 
[ show covariance matrix ]

Ephemeris | Orbit Diagram | Orbital Elements | Mission Design | Physical Parameters | Discovery Circumstances | Close-Approach Data ]

Physical Parameter Table
Parameter Symbol Value Units Sigma Reference Notes
absolute magnitude H 17.6   n/a MPO434366  

382019 (2011 BM62)          Discovered 2006-Dec-12 by Mt. Lemmon Survey at Mount Lemmon
Reference: Last Updated: 2013-12-19

[ show close-approach data ]
Alternate Designations
 2011 BM62 = 2006 XZ41 
Ephemeris | Orbit Diagram | Orbital Elements | Mission Design | Physical Parameters | Discovery Circumstances | Close-Approach Data ]
ABOUT SSD CREDITS/AWARDS PRIVACY/COPYRIGHT GLOSSARY LINKS
FirstGov
(server date/time)  
NASA Home Page
Site Manager:   Ryan S. Park
Webmaster  Alan B. Chamberlin